Current Version              Previous Version:    01  02  03  04  05  06  07  08  09  10  11  12  13  14  15  16  17  18  19  20  21  22  23  24  25  26  27  28  29  30  
   31  32  33  34  35  36  37  38  39  40  41  42  43  44  45  46  47  48  49  50  51  52  53  54  55  56  57  58  59  60  

[Printable]
256
ASUS44 KLUB 272001
RWRTX
WEST TEXAS WEATHER ROUNDUP
NATIONAL WEATHER SERVICE LUBBOCK TX
200 PM CST TUE JAN 27 2015

NOTE: "FAIR" INDICATES FEW OR NO CLOUDS BELOW 12,000 FEET WITH NO
SIGNIFICANT WEATHER AND/OR OBSTRUCTIONS TO VISIBILITY.

TXZ004-006>008-010-012-014-016-OKZ002-272100-
TEXAS PANHANDLE/OKLAHOMA PANHANDLE

CITY           SKY/WX    TMP DP  RH WIND       PRES   REMARKS
AMARILLO       MOSUNNY   72  29  20 SW15      30.18F
BORGER         MOSUNNY   73  28  18 SW17      30.15F
CANADIAN       SUNNY     79  29  16 SW13G23   30.10F
DALHART        SUNNY     69  34  27 SW14      30.17F
GUYMON         MOSUNNY   78  30  17 SW16G30   30.09F
$$

TXZ026-029-035-045-048-272100-
SOUTHERN PANHANDLE/SOUTH PLAINS/ROLLING PLAINS

CITY           SKY/WX    TMP DP  RH WIND       PRES   REMARKS
CHILDRESS      SUNNY     78  32  18 SW6       30.14F
LUBBOCK        MOSUNNY   72  31  22 SW8       30.19F
$$

TXZ052-054-060>062-072-078-127-140-154-169-272100-
PERMIAN BASIN/CONCHO VALLEY/BIG COUNTRY/EDWARDS PLATEAU

CITY           SKY/WX    TMP DP  RH WIND       PRES   REMARKS
ABILENE        SUNNY     76  35  22 E3        30.17F
BROWNWOOD      SUNNY     75  36  23 S3        30.16F
JUNCTION       SUNNY     76  31  19 SW5       30.17F
MIDLAND        SUNNY     70  34  26 SW6       30.21F
ODESSA         SUNNY     69  32  25 VRB6      30.22F
SAN ANGELO     SUNNY     73  34  23 SW6       30.18F
WINK           SUNNY     70  28  21 W6        30.19F
$$

TXZ055-058-074-075-080-082-272100-
FAR WEST/SOUTHWEST MOUNTAINS/TRANS PECOS

CITY           SKY/WX    TMP DP  RH WIND       PRES   REMARKS
DRYDEN           N/A     75  30  19 W7        30.18F
EL PASO        MOSUNNY   64  35  34 VRB3      30.26F
FORT STOCKTON  SUNNY     68  36  30 NW6       30.23F
GUADALUPE PASS SUNNY     65  28  24 W21       30.30F
MARFA          SUNNY     66  45  45 S10       30.30F
$$

TXZ014-016-019-021>030-083-272100
TEXAS TECH WEST TEXAS MESONET/TEXAS PANHANDLE/NORTHERN SOUTH PLAINS

CITY           SKY/WX    TMP DP  RH WIND       PRES   REMARKS
ABERNATHY 5ENE   N/A     71  32  23 S7        30.20F
AMARILLO 9NNE    N/A     72  34  24 SW14      30.17F
AMARILLO 7SSE    N/A     71  33  24 SW13      30.20F
AMHERST 1NE      N/A     70  31  23 SW8       30.20F
BOOTLEG 11WNW    N/A     65  35  32 SW12      30.24F
CANADIAN 6E      N/A     79  32  18 SW10      30.10F
CAPROCK CYN SP   N/A     73  30  20 S12       30.17F
CHILDRESS 2NNE   N/A     78  32  18 S7        30.14F
CLARENDON 2WSW   N/A     73  30  20 SW10      30.16F
CLAUDE 12SW      N/A     72  32  23 SW8       30.18F
DIMMITT 2NE      N/A     67  33  28 SW10      30.21F
FLOYDADA 2NNE    N/A     71  28  20 S7        30.19F
FRIONA 2NE       N/A     68  32  26 SW12      30.22F
GOODLETT 3W      N/A     78  31  18 S8        30.13F
HART 3N          N/A     68  32  25 SW9       30.21F
HEREFORD 2NW     N/A     69  32  25 SW13      30.20F
MCLEAN 1E        N/A     76  30  18 SW12      30.14F
MEMPHIS 1NE      N/A     75  29  18 S9        30.14F
MULESHOE 2SSW    N/A     70  29  22 W10       30.21F
OLTON 6S         N/A     69  31  24 SW6       30.20F
PALO DURO SP     N/A     72  32  22 S9        30.20F
PAMPA 2E         N/A     72  33  23 SW10      30.16F
PLAINVIEW 1S     N/A     70  33  25 SW6       30.19F
SILVERTON 7ESE   N/A     71  31  22 S8        30.19F
TULIA 2ENE       N/A     70  33  25 SW9       30.20F
TURKEY 2WSW      N/A     74  30  19 SW12      30.15F
UMBARGER 3NNE    N/A     68  36  30 SW7       30.20F
$$

TXZ033>036-039>041-045>048-272100
TEXAS TECH WEST TEXAS MESONET/SOUTH PLAINS

CITY           SKY/WX    TMP DP  RH WIND       PRES   REMARKS
AIKEN 3WSW       N/A     70  35  27 S7        30.21F
ANDREWS 2NE      N/A     71  28  19 S5        30.22F
ANTON 6SSW       N/A     71  34  25 SW10      30.20F
BROWNFIELD 2S    N/A     71  31  23 SW7       30.21F
DENVR CTY 7WNW   N/A     69  27  20 SW8       30.22F
GAIL 2ESE        N/A     72  34  25 S6        30.19F
LAMESA 2SE       N/A     73  34  24 SW8       30.21F
LEVELLAND 4S     N/A     71  31  22 S7        30.21F
LUBBOCK 3WNW     N/A     73  31  21 S6        30.20F
MORTON 1ENE      N/A     71  31  22 SW10      30.21F
ODONNELL 1N      N/A     72  29  20 SW6       30.21F
PLAINS 3N        N/A     70  30  22 SW9       30.22F
RALLS 1SE        N/A     72  31  21 S5        30.20F
REESE CENTER     N/A     70  30  22 SW10      30.21F
SEAGRAVES 1SW    N/A     70  31  23 SW7       30.21F
SEMINOLE 2NNE    N/A     71  30  21 SW8       30.22F
SLATON 2NE       N/A     71  32  23 S10       30.20F
SNYDER 3E        N/A     73  35  24 S7        30.19F
SUNDOWN 8SW      N/A     72  29  20 SW8       30.21F
TAHOKA 3NNE      N/A     74  31  20 SW9       30.20F
WOLFFORTH 6SSW   N/A     71  33  24 SW9       30.21F
$$

TXZ031-032-036>038-042>044-272100-
TEXAS TECH WEST TEXAS MESONET/ROLLING PLAINS

CITY           SKY/WX    TMP DP  RH WIND       PRES   REMARKS
ASPERMONT 3NE    N/A     77  33  20 SW3       30.16F
FLUVANNA 3WNW    N/A     74  32  21 S6        30.19F
GRAHAM 5SSW      N/A     73  30  20 SW6       30.19F
GUTHRIE 10WSW    N/A     75  32  20 SW8       30.16F
HASKELL 1NW      N/A     74  38  27 S6        30.16F
JAYTON 1SSE      N/A     76  32  20 W6        30.16F
KNOX CITY 3NW    N/A     74  37  25 S5        30.15F
LK A HENRY 1NW   N/A     74  35  23 SW5       30.17F
NORTHFIELD 1S    N/A     78  32  18 S8        30.14F
ODELL 4ENE       N/A     77  36  22 SE8       30.14S
PADUCAH 10SW     N/A     78  31  18 SE3       30.15F
POST 1NE         N/A     76  33  20 S5        30.18F
RRING SPRGS 3N   N/A     75  33  21 S8        30.17F
SEYMOUR 3NW      N/A     72  42  33 SW6       30.14F
SPUR 1W          N/A     75  30  19 S7        30.17F
WEINERT 2NNE     N/A     72  39  29 SW3       30.15F
WHITE RVR 6NE    N/A     74  32  21 S7        30.18F
$$

TXZ052-054-060>062-072-078-127-140-154-169-272100-
TEXAS TECH WEST TEXAS MESONET/PERMIAN BASIN/
CONCHO VALLEY/BIG COUNTRY/EDWARDS PLATEAU

CITY           SKY/WX    TMP DP  RH WIND       PRES   REMARKS
COYANOSA 2N      N/A     68  35  29 W3        30.22F
JUNCTION 1SSW    N/A     77  33  20 W5        30.18F
MERTZON 3NNE     N/A     73  35  24 N2        30.20F
SAN ANGELO 7NW   N/A     74  32  21 S6        30.19F
STRLNG CT 4WSW   N/A     73  35  25 E1        30.20F
ST LAWRNCE 5SW   N/A     70  31  23 W5        30.21F
SWEETWATR 11SW   N/A     73  42  32 SW8       30.20F
WALL 1E          N/A     70  36  28 SW2       30.19F
$$

TXZ055-058-074-075-080-082-272100-
TEXAS TECH WEST TEXAS MESONET/FAR WEST/SOUTHWEST MOUNTAINS/TRANS PECOS

CITY           SKY/WX    TMP DP  RH WIND       PRES   REMARKS
PRSMN GAP BBNP   N/A     72  38  29 S9        30.22F
$$